QPF
0.09 0.07 0.07 0.09 0.08 0.08 0.10 0.12 0.17 0.20 0.22 0.22 0.23 0.20 0.19 0.18 0.16 0.13 0.12 0.11 0.11 0.10 0.09 0.08 0.06 0.08 0.09 0.11 0.12 0.12 0.10 0.07 0.06 0.05 0.04 0.05 0.06 0.07 0.06 0.04 0.03 0.03 0.02
0.14 0.13 0.10 0.09 0.09 0.11 0.13 0.13 0.15 0.19 0.20 0.21 0.19 0.19 0.18 0.17 0.13 0.15 0.13 0.14 0.11 0.08 0.08 0.08 0.09 0.10 0.10 0.12 0.13 0.13 0.12 0.11 0.09 0.08 0.07 0.06 0.06 0.07 0.07 0.06 0.05 0.05 0.04
0.16 0.13 0.11 0.10 0.11 0.12 0.10 0.10 0.10 0.14 0.15 0.17 0.15 0.14 0.13 0.13 0.11 0.13 0.13 0.14 0.11 0.07 0.06 0.07 0.10 0.11 0.11 0.12 0.14 0.15 0.16 0.14 0.11 0.10 0.08 0.08 0.06 0.06 0.07 0.08 0.07 0.05 0.03
0.21 0.18 0.16 0.14 0.13 0.11 0.09 0.08 0.09 0.10 0.10 0.11 0.11 0.08 0.09 0.09 0.07 0.09 0.09 0.09 0.11 0.06 0.05 0.06 0.08 0.09 0.09 0.10 0.13 0.17 0.18 0.17 0.14 0.11 0.08 0.07 0.06 0.05 0.06 0.07 0.07 0.06 0.04
0.30 0.27 0.23 0.21 0.18 0.13 0.09 0.07 0.06 0.06 0.06 0.07 0.06 0.06 0.05 0.05 0.05 0.05 0.05 0.06 0.08 0.07 0.06 0.05 0.05 0.06 0.07 0.10 0.11 0.14 0.16 0.15 0.14 0.12 0.11 0.10 0.08 0.06 0.05 0.05 0.06 0.05 0.04
0.32 0.29 0.26 0.20 0.14 0.09 0.07 0.06 0.04 0.03 0.04 0.05 0.04 0.03 0.04 0.03 0.04 0.03 0.03 0.04 0.05 0.04 0.04 0.05 0.07 0.05 0.05 0.08 0.09 0.11 0.13 0.13 0.12 0.11 0.11 0.11 0.10 0.08 0.06 0.04 0.04 0.04 0.04
0.29 0.26 0.23 0.19 0.12 0.07 0.05 0.04 0.03 0.02 0.02 0.02 0.03 0.03 0.04 0.03 0.02 0.02 0.02 0.02 0.02 0.04 0.04 0.06 0.08 0.08 0.07 0.04 0.05 0.07 0.09 0.11 0.11 0.09 0.09 0.09 0.10 0.08 0.06 0.04 0.03 0.03 0.03
0.22 0.20 0.16 0.13 0.11 0.07 0.04 0.03 0.02 0.02 0.02 0.02 0.02 0.02 0.02 0.02 0.02 0.01 0.02 0.02 0.02 0.03 0.03 0.04 0.05 0.07 0.07 0.07 0.04 0.04 0.06 0.09 0.10 0.09 0.08 0.08 0.08 0.07 0.06 0.05 0.04 0.02 0.02
0.24 0.21 0.19 0.14 0.09 0.06 0.05 0.03 0.03 0.03 0.02 0.02 0.02 0.02 0.01 0.01 0.01 0.01 0.01 0.01 0.01 0.02 0.03 0.03 0.03 0.05 0.06 0.08 0.07 0.04 0.04 0.06 0.07 0.08 0.09 0.08 0.07 0.06 0.05 0.05 0.04 0.03 0.02
0.20 0.15 0.14 0.13 0.10 0.06 0.05 0.04 0.02 0.02 0.03 0.02 0.02 0.01 0.01 0.01 0.01 0.00 0.00 0.00 0.01 0.01 0.01 0.01 0.02 0.02 0.04 0.05 0.05 0.05 0.04 0.03 0.03 0.05 0.07 0.08 0.07 0.06 0.04 0.04 0.05 0.05 0.04
0.14 0.13 0.12 0.12 0.10 0.08 0.06 0.04 0.04 0.03 0.04 0.03 0.03 0.02 0.02 0.01 0.01 0.00 0.00 0.00 0.00 0.00 0.01 0.01 0.02 0.02 0.02 0.03 0.04 0.03 0.03 0.02 0.02 0.02 0.03 0.05 0.06 0.07 0.06 0.06 0.07 0.07 0.06
0.08 0.09 0.08 0.06 0.06 0.07 0.08 0.07 0.06 0.06 0.05 0.05 0.05 0.03 0.02 0.02 0.01 0.02 0.01 0.01 0.01 0.00 0.00 0.00 0.01 0.01 0.02 0.02 0.02 0.02 0.01 0.01 0.01 0.01 0.02 0.03 0.04 0.05 0.06 0.07 0.08 0.09 0.09
0.05 0.07 0.06 0.06 0.06 0.05 0.04 0.05 0.06 0.06 0.06 0.07 0.07 0.07 0.05 0.03 0.01 0.01 0.01 0.01 0.01 0.01 0.00 0.00 0.00 0.01 0.01 0.02 0.02 0.01 0.01 0.01 0.01 0.01 0.01 0.02 0.02 0.03 0.03 0.04 0.07 0.09 0.10
0.02 0.02 0.03 0.04 0.05 0.05 0.04 0.04 0.04 0.04 0.05 0.06 0.06 0.07 0.07 0.05 0.04 0.02 0.01 0.02 0.02 0.01 0.01 0.00 0.00 0.00 0.01 0.01 0.01 0.00 0.01 0.01 0.01 0.00 0.00 0.00 0.01 0.02 0.02 0.03 0.05 0.07 0.09
0.01 0.01 0.01 0.02 0.02 0.03 0.03 0.03 0.03 0.03 0.04 0.04 0.05 0.06 0.05 0.05 0.05 0.04 0.03 0.03 0.02 0.02 0.01 0.01 0.01 0.01 0.00 0.00 0.00 0.01 0.01 0.00 0.00 0.00 0.00 0.00 0.01 0.01 0.01 0.01 0.02 0.03 0.05
0.01 0.01 0.01 0.01 0.01 0.01 0.01 0.02 0.02 0.02 0.03 0.03 0.05 0.06 0.06 0.06 0.06 0.06 0.05 0.05 0.03 0.03 0.02 0.01 0.02 0.01 0.01 0.00 0.00 0.00 0.00 0.00 0.00 0.00 0.00 0.00 0.00 0.00 0.01 0.01 0.01 0.01 0.02
0.01 0.01 0.01 0.01 0.00 0.00 0.01 0.01 0.01 0.01 0.02 0.02 0.03 0.04 0.05 0.06 0.07 0.07 0.07 0.06 0.05 0.04 0.03 0.03 0.02 0.01 0.01 0.01 0.01 0.01 0.00 0.01 0.00 0.01 0.00 0.00 0.01 0.01 0.01 0.01 0.02 0.02 0.02
0.01 0.01 0.00 0.00 0.00 0.00 0.01 0.01 0.01 0.01 0.01 0.01 0.02 0.03 0.03 0.04 0.05 0.05 0.06 0.06 0.05 0.05 0.05 0.04 0.04 0.02 0.01 0.01 0.01 0.01 0.00 0.00 0.00 0.01 0.01 0.01 0.01 0.01 0.01 0.01 0.01 0.01 0.03
0.01 0.01 0.01 0.01 0.00 0.00 0.01 0.01 0.01 0.01 0.00 0.01 0.02 0.03 0.03 0.04 0.04 0.04 0.04 0.04 0.05 0.04 0.05 0.05 0.04 0.04 0.02 0.01 0.01 0.01 0.01 0.01 0.00 0.00 0.01 0.01 0.01 0.01 0.02 0.02 0.01 0.02 0.03
0.01 0.01 0.01 0.01 0.01 0.01 0.01 0.01 0.01 0.01 0.01 0.01 0.01 0.02 0.03 0.04 0.04 0.04 0.05 0.04 0.04 0.04 0.04 0.04 0.03 0.03 0.02 0.02 0.02 0.01 0.02 0.01 0.01 0.00 0.01 0.01 0.02 0.02 0.02 0.03 0.04 0.03 0.05
0.01 0.01 0.01 0.01 0.01 0.02 0.01 0.01 0.02 0.01 0.02 0.02 0.01 0.01 0.01 0.02 0.03 0.04 0.04 0.04 0.05 0.04 0.04 0.04 0.03 0.02 0.02 0.02 0.01 0.01 0.01 0.02 0.01 0.01 0.01 0.01 0.02 0.02 0.03 0.04 0.05 0.05 0.04
0.04 0.04 0.04 0.03 0.03 0.01 0.01 0.01 0.01 0.01 0.02 0.02 0.02 0.01 0.01 0.01 0.02 0.02 0.03 0.03 0.04 0.05 0.05 0.04 0.03 0.02 0.02 0.01 0.02 0.02 0.02 0.02 0.02 0.01 0.01 0.02 0.03 0.04 0.03 0.04 0.07 0.08 0.07
0.07 0.08 0.06 0.05 0.04 0.04 0.02 0.01 0.00 0.02 0.02 0.02 0.02 0.02 0.01 0.00 0.01 0.02 0.02 0.02 0.02 0.02 0.03 0.05 0.05 0.03 0.02 0.02 0.02 0.02 0.02 0.02 0.02 0.01 0.01 0.02 0.03 0.04 0.06 0.07 0.08 0.08 0.09
0.09 0.09 0.08 0.07 0.06 0.04 0.01 0.01 0.01 0.01 0.03 0.02 0.02 0.02 0.02 0.01 0.01 0.01 0.03 0.03 0.02 0.02 0.01 0.03 0.05 0.05 0.04 0.04 0.04 0.04 0.03 0.03 0.03 0.02 0.01 0.02 0.03 0.04 0.05 0.06 0.09 0.09 0.08
0.09 0.09 0.09 0.08 0.07 0.05 0.02 0.01 0.01 0.02 0.03 0.03 0.02 0.02 0.02 0.02 0.01 0.01 0.02 0.03 0.03 0.02 0.01 0.02 0.04 0.04 0.03 0.03 0.04 0.04 0.04 0.04 0.04 0.03 0.02 0.02 0.03 0.04 0.05 0.05 0.05 0.08 0.09
0.08 0.07 0.07 0.07 0.07 0.08 0.04 0.01 0.01 0.02 0.03 0.04 0.04 0.03 0.01 0.01 0.01 0.01 0.01 0.04 0.05 0.04 0.03 0.02 0.02 0.02 0.02 0.02 0.02 0.03 0.03 0.03 0.03 0.03 0.03 0.02 0.02 0.02 0.04 0.05 0.04 0.04 0.06
MSLP
1011.90 1012.05 1012.17 1012.27 1012.35 1012.43 1012.52 1012.60 1012.68 1012.74 1012.76 1012.76 1012.73 1012.70 1012.70 1012.74 1012.84 1013.03 1013.30 1013.63 1014.01 1014.40 1014.79 1015.16 1015.50 1015.82 1016.12 1016.43 1016.74 1017.08 1017.44 1017.82 1018.22 1018.62 1019.02 1019.40 1019.76 1020.10 1020.41 1020.68 1020.93 1021.16 1021.37
1011.20 1011.35 1011.49 1011.62 1011.74 1011.86 1011.98 1012.09 1012.18 1012.26 1012.30 1012.31 1012.29 1012.27 1012.27 1012.30 1012.38 1012.54 1012.77 1013.06 1013.41 1013.78 1014.17 1014.55 1014.91 1015.26 1015.59 1015.92 1016.26 1016.61 1016.99 1017.38 1017.79 1018.21 1018.63 1019.04 1019.43 1019.79 1020.12 1020.41 1020.68 1020.92 1021.14
1010.47 1010.61 1010.76 1010.93 1011.10 1011.27 1011.44 1011.60 1011.74 1011.85 1011.92 1011.96 1011.97 1011.95 1011.94 1011.95 1012.00 1012.11 1012.28 1012.52 1012.82 1013.16 1013.53 1013.90 1014.28 1014.66 1015.02 1015.39 1015.75 1016.12 1016.51 1016.91 1017.33 1017.76 1018.19 1018.62 1019.02 1019.41 1019.76 1020.08 1020.36 1020.62 1020.86
1009.76 1009.88 1010.04 1010.23 1010.45 1010.68 1010.91 1011.13 1011.33 1011.49 1011.61 1011.69 1011.72 1011.72 1011.71 1011.70 1011.71 1011.76 1011.87 1012.04 1012.28 1012.56 1012.89 1013.26 1013.64 1014.03 1014.42 1014.81 1015.20 1015.60 1016.00 1016.41 1016.84 1017.27 1017.70 1018.13 1018.54 1018.94 1019.30 1019.64 1019.94 1020.23 1020.50
1009.11 1009.20 1009.36 1009.58 1009.83 1010.11 1010.40 1010.68 1010.93 1011.15 1011.32 1011.45 1011.52 1011.54 1011.54 1011.52 1011.50 1011.50 1011.55 1011.65 1011.81 1012.03 1012.31 1012.64 1013.00 1013.39 1013.79 1014.20 1014.61 1015.03 1015.45 1015.87 1016.30 1016.73 1017.15 1017.57 1017.98 1018.37 1018.73 1019.08 1019.41 1019.72 1020.02
1008.59 1008.64 1008.79 1009.01 1009.28 1009.60 1009.92 1010.25 1010.55 1010.82 1011.04 1011.20 1011.32 1011.38 1011.40 1011.38 1011.35 1011.32 1011.32 1011.35 1011.44 1011.59 1011.80 1012.07 1012.40 1012.77 1013.16 1013.58 1014.01 1014.44 1014.88 1015.31 1015.74 1016.15 1016.56 1016.96 1017.34 1017.71 1018.07 1018.41 1018.75 1019.08 1019.41
1008.23 1008.25 1008.37 1008.59 1008.86 1009.19 1009.53 1009.87 1010.19 1010.48 1010.74 1010.94 1011.10 1011.20 1011.26 1011.27 1011.24 1011.20 1011.17 1011.15 1011.17 1011.25 1011.39 1011.60 1011.87 1012.20 1012.58 1013.00 1013.43 1013.88 1014.32 1014.76 1015.18 1015.58 1015.97 1016.33 1016.67 1017.01 1017.33 1017.66 1017.99 1018.33 1018.68
1008.08 1008.07 1008.17 1008.37 1008.63 1008.93 1009.25 1009.58 1009.89 1010.18 1010.44 1010.66 1010.85 1011.00 1011.09 1011.14 1011.15 1011.12 1011.07 1011.03 1011.00 1011.01 1011.08 1011.22 1011.44 1011.73 1012.08 1012.48 1012.91 1013.36 1013.82 1014.26 1014.67 1015.05 1015.40 1015.72 1016.01 1016.30 1016.57 1016.86 1017.17 1017.50 1017.87
1008.16 1008.14 1008.22 1008.39 1008.62 1008.88 1009.15 1009.43 1009.69 1009.94 1010.17 1010.39 1010.59 1010.76 1010.90 1010.99 1011.04 1011.04 1011.01 1010.95 1010.90 1010.87 1010.88 1010.97 1011.13 1011.37 1011.69 1012.07 1012.49 1012.94 1013.40 1013.83 1014.23 1014.59 1014.90 1015.17 1015.40 1015.62 1015.84 1016.08 1016.35 1016.66 1017.02
1008.43 1008.42 1008.49 1008.64 1008.82 1009.03 1009.23 1009.42 1009.61 1009.79 1009.96 1010.15 1010.33 1010.51 1010.68 1010.81 1010.90 1010.95 1010.94 1010.90 1010.84 1010.78 1010.77 1010.81 1010.92 1011.12 1011.41 1011.77 1012.18 1012.62 1013.07 1013.49 1013.88 1014.20 1014.47 1014.69 1014.86 1015.01 1015.17 1015.34 1015.57 1015.84 1016.18
1008.83 1008.84 1008.92 1009.05 1009.19 1009.34 1009.46 1009.56 1009.65 1009.73 1009.83 1009.95 1010.10 1010.26 1010.44 1010.60 1010.72 1010.81 1010.84 1010.82 1010.78 1010.72 1010.69 1010.71 1010.80 1010.98 1011.23 1011.57 1011.96 1012.39 1012.82 1013.22 1013.58 1013.87 1014.10 1014.26 1014.38 1014.47 1014.56 1014.68 1014.85 1015.09 1015.39
1009.24 1009.29 1009.39 1009.52 1009.63 1009.72 1009.77 1009.78 1009.77 1009.76 1009.76 1009.81 1009.90 1010.03 1010.19 1010.35 1010.51 1010.62 1010.69 1010.71 1010.69 1010.66 1010.64 1010.65 1010.73 1010.89 1011.13 1011.43 1011.80 1012.19 1012.59 1012.96 1013.28 1013.54 1013.72 1013.84 1013.91 1013.96 1014.00 1014.08 1014.20 1014.40 1014.66
1009.54 1009.64 1009.78 1009.92 1010.02 1010.07 1010.07 1010.01 1009.92 1009.82 1009.74 1009.71 1009.73 1009.81 1009.94 1010.10 1010.25 1010.39 1010.49 1010.54 1010.56 1010.56 1010.56 1010.60 1010.68 1010.83 1011.04 1011.32 1011.64 1011.99 1012.34 1012.67 1012.94 1013.15 1013.30 1013.38 1013.42 1013.44 1013.45 1013.49 1013.59 1013.75 1013.98
1009.64 1009.79 1009.96 1010.12 1010.23 1010.27 1010.24 1010.15 1010.00 1009.85 1009.71 1009.62 1009.59 1009.62 1009.71 1009.84 1009.99 1010.13 1010.25 1010.33 1010.39 1010.43 1010.46 1010.52 1010.61 1010.75 1010.94 1011.18 1011.45 1011.74 1012.03 1012.29 1012.51 1012.67 1012.78 1012.84 1012.86 1012.86 1012.87 1012.90 1012.98 1013.11 1013.31
1009.46 1009.65 1009.85 1010.04 1010.17 1010.23 1010.21 1010.11 1009.97 1009.80 1009.64 1009.51 1009.45 1009.44 1009.50 1009.60 1009.73 1009.86 1009.99 1010.09 1010.18 1010.25 1010.32 1010.41 1010.51 1010.64 1010.80 1010.99 1011.20 1011.42 1011.62 1011.81 1011.96 1012.07 1012.15 1012.19 1012.21 1012.22 1012.23 1012.27 1012.34 1012.46 1012.64
1008.98 1009.19 1009.42 1009.63 1009.79 1009.89 1009.91 1009.86 1009.76 1009.62 1009.48 1009.36 1009.29 1009.27 1009.30 1009.38 1009.48 1009.60 1009.73 1009.84 1009.95 1010.06 1010.15 1010.25 1010.36 1010.48 1010.61 1010.74 1010.88 1011.01 1011.12 1011.23 1011.31 1011.37 1011.42 1011.46 1011.48 1011.51 1011.55 1011.60 1011.68 1011.79 1011.95
1008.26 1008.45 1008.68 1008.92 1009.12 1009.27 1009.36 1009.38 1009.36 1009.29 1009.21 1009.14 1009.10 1009.09 1009.11 1009.17 1009.26 1009.36 1009.48 1009.60 1009.72 1009.84 1009.95 1010.06 1010.17 1010.27 1010.35 1010.43 1010.49 1010.53 1010.57 1010.59 1010.61 1010.63 1010.66 1010.70 1010.74 1010.80 1010.86 1010.94 1011.03 1011.14 1011.27
1007.37 1007.54 1007.75 1008.00 1008.23 1008.44 1008.61 1008.73 1008.80 1008.84 1008.85 1008.85 1008.86 1008.88 1008.91 1008.97 1009.04 1009.13 1009.24 1009.35 1009.47 1009.60 1009.72 1009.83 1009.93 1010.00 1010.05 1010.07 1010.06 1010.03 1009.99 1009.95 1009.93 1009.92 1009.94 1009.99 1010.06 1010.15 1010.25 1010.35 1010.45 1010.55 1010.66
1006.44 1006.55 1006.74 1006.98 1007.24 1007.50 1007.75 1007.96 1008.14 1008.28 1008.39 1008.48 1008.56 1008.62 1008.68 1008.75 1008.82 1008.90 1008.99 1009.10 1009.21 1009.33 1009.45 1009.56 1009.64 1009.68 1009.70 1009.67 1009.61 1009.53 1009.44 1009.37 1009.32 1009.31 1009.34 1009.42 1009.52 1009.65 1009.78 1009.91 1010.02 1010.11 1010.20
1005.55 1005.61 1005.76 1005.99 1006.26 1006.56 1006.87 1007.16 1007.43 1007.67 1007.88 1008.05 1008.19 1008.30 1008.40 1008.48 1008.56 1008.63 1008.72 1008.82 1008.92 1009.03 1009.14 1009.23 1009.29 1009.32 1009.30 1009.24 1009.16 1009.05 1008.95 1008.87 1008.83 1008.84 1008.91 1009.03 1009.18 1009.35 1009.52 1009.67 1009.79 1009.88 1009.94
1004.77 1004.78 1004.90 1005.11 1005.38 1005.71 1006.05 1006.40 1006.74 1007.05 1007.32 1007.56 1007.76 1007.92 1008.04 1008.14 1008.23 1008.31 1008.39 1008.48 1008.58 1008.68 1008.77 1008.85 1008.90 1008.90 1008.87 1008.80 1008.71 1008.60 1008.51 1008.46 1008.46 1008.53 1008.66 1008.84 1009.05 1009.27 1009.48 1009.66 1009.79 1009.88 1009.93
1004.15 1004.12 1004.21 1004.40 1004.67 1004.99 1005.35 1005.72 1006.09 1006.43 1006.75 1007.02 1007.26 1007.45 1007.60 1007.72 1007.82 1007.92 1008.00 1008.09 1008.18 1008.28 1008.36 1008.42 1008.45 1008.44 1008.40 1008.34 1008.25 1008.18 1008.13 1008.13 1008.20 1008.34 1008.54 1008.80 1009.08 1009.37 1009.63 1009.85 1010.00 1010.10 1010.16
1003.66 1003.62 1003.70 1003.87 1004.13 1004.44 1004.79 1005.15 1005.51 1005.86 1006.17 1006.46 1006.70 1006.91 1007.08 1007.22 1007.34 1007.45 1007.55 1007.64 1007.74 1007.82 1007.89 1007.94 1007.96 1007.94 1007.90 1007.85 1007.79 1007.75 1007.76 1007.83 1007.98 1008.20 1008.49 1008.84 1009.21 1009.57 1009.89 1010.16 1010.35 1010.48 1010.57
1003.29 1003.26 1003.34 1003.51 1003.75 1004.04 1004.36 1004.69 1005.01 1005.32 1005.61 1005.88 1006.11 1006.31 1006.49 1006.65 1006.79 1006.92 1007.03 1007.14 1007.24 1007.33 1007.39 1007.42 1007.43 1007.41 1007.37 1007.33 1007.30 1007.30 1007.37 1007.51 1007.73 1008.05 1008.43 1008.86 1009.32 1009.75 1010.15 1010.48 1010.74 1010.92 1011.05
1003.01 1003.01 1003.10 1003.28 1003.50 1003.76 1004.04 1004.32 1004.59 1004.84 1005.08 1005.31 1005.51 1005.70 1005.88 1006.04 1006.20 1006.35 1006.48 1006.61 1006.72 1006.80 1006.86 1006.88 1006.88 1006.85 1006.81 1006.77 1006.76 1006.80 1006.92 1007.12 1007.41 1007.80 1008.26 1008.77 1009.31 1009.83 1010.30 1010.71 1011.04 1011.30 1011.50
1002.79 1002.83 1002.95 1003.13 1003.34 1003.58 1003.81 1004.03 1004.24 1004.43 1004.61 1004.78 1004.94 1005.11 1005.27 1005.43 1005.60 1005.76 1005.91 1006.05 1006.16 1006.24 1006.29 1006.31 1006.29 1006.25 1006.21 1006.17 1006.18 1006.24 1006.39 1006.63 1006.97 1007.42 1007.94 1008.52 1009.12 1009.72 1010.28 1010.77 1011.19 1011.53 1011.82
Thickness
5752 5752 5750 5748 5749 5749 5748 5747 5748 5747 5746 5745 5743 5743 5743 5743 5744 5745 5745 5743 5742 5740 5739 5738 5737 5737 5737 5737 5736 5735 5734 5733 5732 5731 5730 5729 5728 5728 5727 5726 5726 5725 5724
5748 5747 5746 5745 5745 5745 5744 5743 5744 5743 5743 5743 5742 5743 5743 5743 5743 5743 5744 5743 5741 5740 5739 5738 5737 5737 5736 5736 5735 5734 5734 5733 5732 5731 5730 5729 5729 5728 5727 5727 5726 5725 5724
5741 5741 5739 5739 5739 5739 5739 5739 5741 5741 5740 5741 5741 5742 5742 5742 5743 5742 5743 5742 5742 5740 5739 5738 5737 5736 5736 5736 5735 5734 5733 5733 5732 5732 5731 5730 5729 5728 5728 5727 5726 5726 5725
5733 5733 5734 5735 5733 5734 5735 5736 5737 5737 5737 5738 5739 5740 5741 5742 5742 5741 5742 5742 5741 5743 5742 5739 5737 5736 5735 5735 5735 5734 5733 5732 5732 5731 5731 5730 5730 5729 5728 5728 5727 5726 5725
5727 5726 5728 5730 5728 5729 5730 5732 5734 5733 5733 5734 5736 5736 5739 5740 5741 5741 5742 5742 5741 5741 5742 5740 5737 5736 5735 5734 5733 5733 5732 5730 5730 5730 5731 5730 5729 5729 5729 5728 5727 5727 5726
5720 5719 5722 5722 5722 5722 5723 5725 5726 5727 5729 5729 5732 5734 5735 5738 5739 5740 5740 5742 5740 5740 5741 5741 5738 5736 5734 5733 5732 5732 5730 5729 5729 5730 5730 5729 5729 5729 5728 5728 5727 5727 5727
5713 5713 5715 5716 5715 5716 5718 5720 5721 5722 5723 5726 5724 5725 5730 5734 5736 5737 5739 5740 5742 5741 5740 5739 5737 5737 5736 5732 5731 5730 5729 5729 5729 5729 5729 5729 5728 5728 5728 5728 5727 5727 5727
5707 5709 5709 5711 5710 5710 5712 5713 5714 5717 5721 5722 5720 5720 5721 5725 5727 5736 5736 5736 5738 5739 5739 5738 5737 5735 5735 5735 5733 5730 5729 5728 5728 5728 5728 5728 5728 5728 5728 5727 5727 5727 5727
5703 5703 5706 5707 5707 5708 5709 5709 5710 5709 5712 5716 5718 5716 5716 5719 5724 5728 5730 5733 5733 5734 5737 5738 5735 5734 5733 5733 5733 5730 5729 5728 5727 5727 5727 5727 5727 5728 5727 5727 5727 5727 5727
5695 5697 5699 5701 5701 5703 5704 5705 5708 5708 5706 5709 5711 5712 5714 5717 5715 5719 5723 5728 5728 5728 5732 5734 5735 5733 5732 5733 5731 5730 5728 5727 5726 5726 5727 5727 5727 5727 5727 5727 5727 5727 5727
5689 5690 5691 5693 5694 5696 5697 5699 5701 5701 5703 5704 5706 5708 5708 5708 5711 5712 5715 5719 5723 5727 5728 5729 5730 5731 5731 5731 5730 5729 5727 5726 5725 5725 5725 5726 5726 5726 5726 5726 5726 5727 5727
5680 5681 5682 5683 5684 5687 5688 5689 5691 5693 5695 5698 5700 5703 5704 5705 5706 5709 5710 5711 5715 5722 5724 5726 5727 5728 5728 5729 5728 5726 5724 5723 5724 5724 5724 5725 5725 5726 5726 5726 5726 5726 5726
5671 5670 5671 5671 5673 5675 5676 5679 5681 5685 5687 5688 5691 5694 5698 5701 5706 5706 5706 5709 5711 5716 5717 5721 5724 5725 5726 5725 5724 5721 5721 5721 5721 5722 5722 5723 5723 5724 5724 5725 5725 5725 5726
5659 5659 5659 5659 5661 5662 5665 5667 5671 5675 5678 5680 5683 5685 5688 5692 5696 5699 5701 5702 5703 5707 5711 5715 5720 5721 5722 5721 5720 5718 5720 5719 5719 5720 5720 5721 5721 5722 5722 5723 5724 5724 5725
5645 5646 5646 5646 5647 5649 5652 5655 5658 5662 5666 5669 5673 5676 5679 5684 5687 5691 5695 5697 5696 5697 5703 5709 5712 5715 5716 5716 5715 5716 5718 5716 5717 5717 5718 5719 5719 5720 5720 5721 5722 5722 5723
5629 5630 5631 5632 5633 5635 5637 5640 5644 5649 5652 5656 5660 5664 5668 5674 5678 5682 5686 5689 5692 5693 5695 5706 5705 5710 5710 5712 5709 5712 5713 5712 5713 5715 5715 5716 5717 5718 5718 5719 5720 5720 5721
5615 5615 5615 5617 5619 5620 5623 5625 5630 5635 5639 5643 5648 5652 5656 5661 5666 5672 5676 5679 5683 5686 5687 5694 5699 5701 5700 5702 5705 5707 5709 5710 5712 5711 5712 5712 5713 5715 5716 5716 5717 5718 5719
5599 5600 5600 5602 5604 5606 5608 5611 5614 5620 5624 5628 5634 5639 5644 5650 5654 5659 5664 5668 5673 5677 5679 5682 5687 5691 5692 5695 5697 5700 5704 5706 5707 5706 5706 5708 5709 5711 5712 5713 5714 5715 5715
5582 5584 5586 5586 5588 5591 5594 5597 5600 5604 5609 5614 5619 5625 5631 5636 5641 5647 5652 5657 5662 5667 5670 5673 5678 5682 5685 5688 5690 5693 5697 5698 5701 5701 5701 5702 5704 5706 5707 5708 5709 5710 5711
5568 5569 5570 5572 5574 5576 5580 5582 5585 5589 5594 5600 5605 5611 5617 5623 5628 5634 5639 5645 5651 5656 5660 5664 5669 5673 5676 5680 5683 5685 5688 5691 5694 5696 5695 5696 5697 5698 5700 5701 5702 5703 5704
5554 5556 5557 5559 5560 5563 5566 5569 5572 5576 5580 5585 5590 5596 5602 5608 5614 5620 5627 5634 5639 5644 5651 5656 5661 5665 5669 5672 5675 5681 5682 5683 5685 5687 5689 5689 5691 5693 5693 5693 5694 5695 5696
5539 5541 5543 5545 5548 5552 5555 5555 5557 5563 5568 5572 5576 5582 5589 5594 5599 5603 5609 5616 5622 5630 5638 5646 5654 5658 5662 5666 5670 5673 5675 5676 5676 5680 5681 5680 5682 5683 5684 5685 5684 5685 5687
5526 5527 5530 5532 5536 5539 5540 5541 5543 5549 5556 5561 5566 5570 5577 5586 5589 5595 5600 5603 5609 5615 5622 5632 5642 5650 5656 5660 5663 5666 5667 5670 5672 5674 5673 5670 5671 5671 5672 5672 5673 5675 5676
5516 5517 5520 5524 5526 5529 5530 5531 5533 5537 5545 5552 5557 5562 5566 5573 5579 5584 5590 5597 5604 5611 5616 5622 5632 5641 5647 5652 5656 5659 5661 5661 5662 5664 5666 5662 5660 5660 5660 5660 5661 5664 5665
5508 5511 5513 5517 5520 5522 5522 5523 5524 5532 5539 5545 5551 5556 5560 5565 5569 5571 5577 5585 5593 5601 5606 5613 5620 5628 5634 5640 5646 5650 5652 5653 5653 5655 5657 5656 5652 5651 5650 5649 5649 5651 5653
5503 5506 5509 5513 5516 5518 5518 5519 5519 5530 5537 5542 5547 5551 5552 5556 5559 5561 5568 5576 5583 5591 5598 5605 5609 5616 5623 5630 5634 5641 5647 5650 5651 5649 5650 5650 5647 5646 5642 5640 5641 5641 5641